Location: Orange Harbor Mobile Home Park
(26.6923°N, 81.7937°W)
Time: 23:21:46
(UTC+00:00)

SL-4 R/B - Pass Details

Date: 19 September 2020
Orbit: 427 x 666 km, 51.6° (Epoch: 25 October)

Event Time Altitude Azimuth Distance (km) Brightness Sun altitude
Exits shadow 09:19:24 57° 23° (NNE) 727 2.7 -26.2°
Drops below altitude 10° 09:23:12 10° 39° (NE) 2,024 5.6 -25.4°
Sets 09:25:36 0° 41° (NE) 2,960 6.6 -24.9°
